Moses Lake, WA
on Tuesday, February 19, 2013

Tuesday
Previous Day Next Day
Daily Summary
 ActualAverageRecord
Temperature
Mean Temperature °F / °C 36°F / 2°C  
Max Temperature 46°F / 8°C 45°F / 7°C 66°F / 18°C (1981)
Min Temperature 28°F / -2°C 27°F / -3°C 2°F / -16°C (1986)
Degree Days
Heating Degree Days 28 29  
Month to date heating degree days 532 586  
Since 1 July heating degree days 3886 4260  
Cooling Degree Days 0 0  
Month to date cooling degree days 0 0  
Year to date cooling degree days 0 0  
Moisture
Dew Point 27°F / -3°C   
Average Humidity 73    
Maximum Humidity 92    
Minimum Humidity 53    
Precipitation
Precipitation T in / T cm 0.02 in / 0.51 cm 0.40 in / 1.02 cm (1981)
Month to date precipitation T 0.57  
Year to date precipitation 0.28 1.71  
Wind
Wind Speed 5 mph / 7 km/h   
Max Wind Speed 14 mph / 23 km/h   
Max Gust Speed 17 mph / 27 km/h   
Visibility 10 miles / 17 kilometers   
Events     

Key: T is trace of precipitation, MM is missing value
Source: NWS Daily Summary
Time(PST)TemperatureDew PointHumidity Pressure Visibility Wind DirectionWind SpeedGust SpeedPrecipitationEvents Conditions
12:52 AM 30.0°F / -1.1°C 26.1°F / -3.3°C 85% 29.79 in / 1008.8 hPa 10.0 miles / 16.1 kilometers Calm Calm - N/A   Clear
1:52 AM 28.9°F / -1.7°C 26.1°F / -3.3°C 89% 29.79 in / 1008.8 hPa 10.0 miles / 16.1 kilometers Calm Calm - N/A   Clear
2:52 AM 30.0°F / -1.1°C 26.1°F / -3.3°C 85% 29.78 in / 1008.4 hPa 10.0 miles / 16.1 kilometers North 5.8 mph / 9.3 km/h - N/A   Overcast
3:52 AM 30.0°F / -1.1°C 27.0°F / -2.8°C 88% 29.78 in / 1008.5 hPa 10.0 miles / 16.1 kilometers North 3.5 mph / 5.6 km/h - N/A   Overcast
4:52 AM 30.0°F / -1.1°C 27.0°F / -2.8°C 88% 29.78 in / 1008.4 hPa 10.0 miles / 16.1 kilometers NNE 4.6 mph / 7.4 km/h - N/A   Mostly Cloudy
4:55 AM 30.2°F / -1.0°C 21.2°F / -6.0°C 69% 30.05 in / 1017.5 hPa 20.0 miles / 32.2 kilometers West 9.2 mph / 14.8 km/h - N/A   Clear
5:52 AM 28.0°F / -2.2°C 25.0°F / -3.9°C 88% 29.79 in / 1008.6 hPa 10.0 miles / 16.1 kilometers North 6.9 mph / 11.1 km/h - N/A   Clear
6:52 AM 28.9°F / -1.7°C 26.1°F / -3.3°C 89% 29.79 in / 1008.7 hPa 10.0 miles / 16.1 kilometers NNW 6.9 mph / 11.1 km/h - N/A   Scattered Clouds
7:52 AM 28.9°F / -1.7°C 25.0°F / -3.9°C 85% 29.79 in / 1008.8 hPa 10.0 miles / 16.1 kilometers North 6.9 mph / 11.1 km/h - N/A   Clear
8:52 AM 30.9°F / -0.6°C 28.0°F / -2.2°C 89% 29.81 in / 1009.2 hPa 10.0 miles / 16.1 kilometers Calm Calm - N/A   Scattered Clouds
10:52 AM 41.0°F / 5.0°C 30.0°F / -1.1°C 65% 29.80 in / 1008.9 hPa 10.0 miles / 16.1 kilometers North 3.5 mph / 5.6 km/h - N/A   Mostly Cloudy
11:52 AM 41.0°F / 5.0°C 28.9°F / -1.7°C 62% 29.81 in / 1009.2 hPa 10.0 miles / 16.1 kilometers Calm Calm - N/A   Scattered Clouds
12:11 PM 41.0°F / 5.0°C 28.4°F / -2.0°C 61% 29.77 in / 1008.0 hPa 10.0 miles / 16.1 kilometers WNW 5.8 mph / 9.3 km/h - N/A   Mostly Cloudy
12:52 PM 42.1°F / 5.6°C 28.9°F / -1.7°C 60% 29.80 in / 1009.1 hPa 10.0 miles / 16.1 kilometers Calm Calm - N/A   Mostly Cloudy
12:59 PM 42.8°F / 6.0°C 28.4°F / -2.0°C 57% 29.77 in / 1008.0 hPa 10.0 miles / 16.1 kilometers Calm Calm - N/A   Overcast
1:52 PM 43.0°F / 6.1°C 28.0°F / -2.2°C 56% 29.81 in / 1009.3 hPa 10.0 miles / 16.1 kilometers NW 6.9 mph / 11.1 km/h - N/A   Overcast
2:52 PM 44.1°F / 6.7°C 28.9°F / -1.7°C 55% 29.81 in / 1009.4 hPa 10.0 miles / 16.1 kilometers NNW 8.1 mph / 13.0 km/h - N/A   Mostly Cloudy
4:52 PM 39.0°F / 3.9°C 28.9°F / -1.7°C 67% 29.83 in / 1010.0 hPa 10.0 miles / 16.1 kilometers NNW 5.8 mph / 9.3 km/h - N/A   Clear
5:52 PM 36.0°F / 2.2°C 28.0°F / -2.2°C 73% 29.85 in / 1010.8 hPa 10.0 miles / 16.1 kilometers NNW 4.6 mph / 7.4 km/h - N/A   Overcast
6:52 PM 37.4°F / 3.0°C 28.4°F / -2.0°C 70% 29.83 in / 1010.0 hPa 10.0 miles / 16.1 kilometers NNE 3.5 mph / 5.6 km/h - N/A   Overcast
7:52 PM 35.1°F / 1.7°C 28.9°F / -1.7°C 78% 29.89 in / 1012.0 hPa 10.0 miles / 16.1 kilometers WNW 4.6 mph / 7.4 km/h - N/A   Overcast
8:52 PM 36.0°F / 2.2°C 28.9°F / -1.7°C 76% 29.90 in / 1012.4 hPa 10.0 miles / 16.1 kilometers Calm Calm - N/A   Overcast
9:52 PM 36.0°F / 2.2°C 28.9°F / -1.7°C 76% 29.91 in / 1012.9 hPa 10.0 miles / 16.1 kilometers NNW 5.8 mph / 9.3 km/h - 0.00 in / 0.0 cm   Overcast
10:52 PM 35.1°F / 1.7°C 28.9°F / -1.7°C 78% 29.92 in / 1013.2 hPa 10.0 miles / 16.1 kilometers WNW 4.6 mph / 7.4 km/h - 0.00 in / 0.0 cm   Overcast
11:52 PM 33.1°F / 0.6°C 25.0°F / -3.9°C 72% 29.94 in / 1013.9 hPa 10.0 miles / 16.1 kilometers NNW 8.1 mph / 13.0 km/h - N/A   Clear
Moon Phase
Feb. 19 Feb. 25 Mar. 04 Mar. 11 Mar. 19
Sunrise:06:54 AM (PST) Moon Rise:11:51 AM (PST)2/19
Sunset:05:28 PM (PST) Moon Set:02:43 AM (PST)2/19

Copyright © 2014 The Weather Underground, Inc.